�������l�o���
Date,Time,MP-1(��Sv/h),MP-2(��Sv/h),MP-3(��Sv/h),MP-4(��Sv/h),MP-5(��Sv/h),MP-6(��Sv/h),MP-7(��Sv/h),MP-8(��Sv/h),����,����(m/s),���J
2019/05/21,00:00,0.776,1.119,0.774,1.408,1.045,0.442,0.772,0.731,��,12.0,�L
2019/05/21,00:10,0.778,1.119,0.776,1.406,1.043,0.441,0.773,0.730,��,10.5,�L
2019/05/21,00:20,0.775,1.117,0.775,1.405,1.043,0.439,0.773,0.730,��,11.3,��
2019/05/21,00:30,0.775,1.117,0.774,1.407,1.042,0.442,0.772,0.730,��,10.5,��
2019/05/21,00:40,0.775,1.116,0.774,1.408,1.043,0.442,0.774,0.728,��,10.2,��
2019/05/21,00:50,0.775,1.116,0.775,1.409,1.043,0.440,0.773,0.726,��,11.4,��
2019/05/21,01:00,0.775,1.120,0.774,1.410,1.043,0.441,0.772,0.729,��,9.8,�L
2019/05/21,01:10,0.775,1.117,0.774,1.408,1.042,0.442,0.771,0.728,��,11.3,�L
2019/05/21,01:20,0.774,1.117,0.775,1.408,1.043,0.440,0.772,0.728,��,11.3,��
2019/05/21,01:30,0.774,1.114,0.774,1.407,1.040,0.442,0.771,0.727,��,11.7,�L
2019/05/21,01:40,0.776,1.116,0.774,1.406,1.041,0.442,0.771,0.727,��,11.9,�L
2019/05/21,01:50,0.773,1.118,0.773,1.407,1.045,0.441,0.771,0.728,��,11.1,�L
2019/05/21,02:00,0.773,1.116,0.774,1.408,1.042,0.442,0.774,0.728,��,9.8,�L
2019/05/21,02:10,0.772,1.116,0.774,1.408,1.040,0.443,0.772,0.728,��,7.9,��
2019/05/21,02:20,0.775,1.116,0.776,1.409,1.042,0.443,0.773,0.731,��,10.7,�L
2019/05/21,02:30,0.775,1.116,0.772,1.408,1.044,0.442,0.773,0.730,��,9.0,��
2019/05/21,02:40,0.774,1.115,0.773,1.408,1.044,0.442,0.772,0.729,��,8.7,�L
2019/05/21,02:50,0.776,1.119,0.773,1.407,1.044,0.442,0.772,0.730,��,8.9,�L
2019/05/21,03:00,0.777,1.115,0.774,1.408,1.042,0.441,0.771,0.727,��,9.8,�L
2019/05/21,03:10,0.775,1.112,0.772,1.409,1.042,0.441,0.771,0.729,��,11.8,�L
2019/05/21,03:20,0.777,1.114,0.773,1.409,1.043,0.442,0.772,0.729,��,12.7,�L
2019/05/21,03:30,0.775,1.114,0.773,1.407,1.043,0.440,0.772,0.729,��,12.4,�L
2019/05/21,03:40,0.777,1.113,0.775,1.407,1.041,0.441,0.773,0.726,��,14.4,�L
2019/05/21,03:50,0.775,1.113,0.773,1.406,1.041,0.442,0.773,0.726,��,14.1,�L
2019/05/21,04:00,0.773,1.109,0.774,1.407,1.041,0.440,0.773,0.728,��,14.1,�L
2019/05/21,04:10,0.772,1.110,0.773,1.403,1.042,0.440,0.771,0.726,��,17.2,�L
2019/05/21,04:20,0.772,1.107,0.770,1.407,1.038,0.442,0.772,0.726,��,13.5,�L
2019/05/21,04:30,0.773,1.108,0.771,1.404,1.042,0.439,0.772,0.726,��,13.0,�L
2019/05/21,04:40,0.770,1.110,0.769,1.404,1.042,0.441,0.771,0.727,��,11.8,�L
2019/05/21,04:50,0.774,1.108,0.772,1.404,1.041,0.441,0.770,0.725,��,13.5,�L
2019/05/21,05:00,0.771,1.104,0.771,1.402,1.037,0.442,0.770,0.726,��,14.1,�L
2019/05/21,05:10,0.767,1.103,0.769,1.400,1.035,0.441,0.769,0.726,��,13.6,�L
2019/05/21,05:20,0.766,1.100,0.769,1.400,1.030,0.440,0.768,0.725,��쓌,14.4,�L
2019/05/21,05:30,0.764,1.092,0.765,1.399,1.029,0.442,0.765,0.725,��,13.5,�L
2019/05/21,05:40,0.762,1.089,0.764,1.394,1.026,0.440,0.768,0.723,��,11.7,�L
2019/05/21,05:50,0.761,1.085,0.762,1.392,1.024,0.441,0.766,0.723,��,13.3,�L
2019/05/21,06:00,0.764,1.086,0.763,1.391,1.022,0.440,0.766,0.724,��,12.5,�L
2019/05/21,06:10,0.763,1.087,0.764,1.394,1.022,0.439,0.770,0.724,��,12.2,�L
2019/05/21,06:20,0.762,1.089,0.762,1.389,1.022,0.440,0.767,0.722,��,11.4,�L
2019/05/21,06:30,0.763,1.089,0.764,1.393,1.022,0.438,0.769,0.723,��쓌,12.7,�L
2019/05/21,06:40,0.761,1.086,0.763,1.390,1.021,0.439,0.769,0.723,��,13.1,�L
2019/05/21,06:50,0.762,1.090,0.764,1.388,1.021,0.439,0.768,0.726,��,12.1,�L
2019/05/21,07:00,0.762,1.087,0.762,1.392,1.022,0.439,0.768,0.724,��,10.9,�L
2019/05/21,07:10,0.763,1.088,0.762,1.389,1.023,0.437,0.767,0.725,��,9.5,�L
2019/05/21,07:20,0.762,1.084,0.763,1.391,1.019,0.437,0.767,0.724,��,11.7,�L
2019/05/21,07:30,0.760,1.080,0.760,1.387,1.017,0.439,0.765,0.725,��쓌,14.1,�L
2019/05/21,07:40,0.759,1.076,0.758,1.384,1.013,0.438,0.766,0.722,��쓌,10.3,�L
2019/05/21,07:50,0.759,1.075,0.758,1.385,1.015,0.437,0.766,0.722,��,12.4,�L
2019/05/21,08:00,0.760,1.077,0.758,1.385,1.014,0.438,0.766,0.721,��,12.0,�L
2019/05/21,08:10,0.756,1.066,0.754,1.375,1.005,0.436,0.766,0.719,��,12.1,�L
2019/05/21,08:20,0.752,1.060,0.748,1.366,0.998,0.435,0.762,0.717,��,13.8,�L
2019/05/21,08:30,0.750,1.063,0.749,1.364,0.996,0.433,0.763,0.718,��,12.7,�L
2019/05/21,08:40,0.748,1.062,0.745,1.363,0.996,0.434,0.761,0.718,��쓌,13.8,�L
2019/05/21,08:50,0.748,1.062,0.745,1.361,0.996,0.434,0.760,0.717,��,13.9,�L
2019/05/21,09:00,0.747,1.058,0.744,1.359,0.993,0.433,0.758,0.716,��쓌,14.1,�L
2019/05/21,09:10,0.746,1.054,0.742,1.355,0.991,0.433,0.758,0.716,��쓌,13.8,�L
2019/05/21,09:20,0.743,1.052,0.742,1.349,0.986,0.433,0.758,0.716,��쓌,13.1,�L
2019/05/21,09:30,0.740,1.045,0.738,1.344,0.982,0.431,0.757,0.711,��,13.8,�L
2019/05/21,09:40,0.735,1.039,0.733,1.334,0.975,0.427,0.754,0.710,��쓌,11.0,�L
2019/05/21,09:50,0.733,1.037,0.730,1.324,0.969,0.425,0.750,0.710,��,12.7,�L
2019/05/21,10:00,0.729,1.035,0.730,1.321,0.968,0.427,0.749,0.709,��,12.4,�L
2019/05/21,10:10,0.730,1.032,0.727,1.318,0.966,0.426,0.748,0.708,��쓌,13.3,�L
2019/05/21,10:20,0.726,1.030,0.725,1.312,0.963,0.425,0.745,0.706,��쓌,14.1,�L
2019/05/21,10:30,0.728,1.028,0.724,1.310,0.958,0.424,0.744,0.706,��쓌,14.1,�L
2019/05/21,10:40,0.727,1.024,0.724,1.310,0.958,0.424,0.742,0.705,��쓌,14.4,�L
2019/05/21,10:50,0.724,1.020,0.720,1.306,0.957,0.423,0.741,0.704,��쓌,13.0,�L
2019/05/21,11:00,0.724,1.017,0.719,1.299,0.953,0.423,0.739,0.703,��쓌,14.7,�L
2019/05/21,11:10,0.719,1.013,0.717,1.294,0.949,0.424,0.737,0.700,��쓌,12.5,�L
2019/05/21,11:20,0.720,1.012,0.715,1.293,0.946,0.422,0.737,0.700,��쓌,14.4,�L
2019/05/21,11:30,0.718,1.012,0.715,1.292,0.944,0.423,0.737,0.699,��쓌,13.8,�L
2019/05/21,11:40,0.716,1.008,0.714,1.292,0.944,0.422,0.735,0.700,��쓌,13.5,�L
2019/05/21,11:50,0.718,1.015,0.714,1.290,0.943,0.423,0.736,0.701,��쓌,12.4,�L
2019/05/21,12:00,0.718,1.013,0.715,1.291,0.941,0.423,0.737,0.699,��쓌,13.8,�L
2019/05/21,12:10,0.714,1.011,0.714,1.288,0.938,0.424,0.736,0.700,��,11.4,�L
2019/05/21,12:20,0.712,1.009,0.712,1.285,0.936,0.422,0.735,0.699,-,CALM,�L
2019/05/21,12:30,0.712,1.008,0.709,1.282,0.934,0.422,0.734,0.699,��,14.2,�L
2019/05/21,12:40,0.710,1.006,0.711,1.281,0.930,0.422,0.734,0.698,-,CALM,�L
2019/05/21,12:50,0.710,1.005,0.707,1.276,0.929,0.423,0.731,0.697,��,14.6,�L
2019/05/21,13:00,0.709,1.000,0.707,1.275,0.927,0.422,0.731,0.696,-,CALM,�L
2019/05/21,13:10,0.707,1.003,0.707,1.273,0.926,0.424,0.731,0.698,��,11.1,�L
2019/05/21,13:20,0.709,1.004,0.708,1.276,0.925,0.425,0.731,0.697,��쐼,9.4,�L
2019/05/21,13:30,0.706,1.010,0.702,1.273,0.916,0.423,0.731,0.697,�쐼,7.3,�L
2019/05/21,13:40,0.700,1.002,0.701,1.261,0.908,0.421,0.726,0.694,�쐼,7.4,�L
2019/05/21,13:50,0.697,1.002,0.699,1.260,0.905,0.415,0.725,0.692,��,7.3,�L
2019/05/21,14:00,0.699,1.007,0.700,1.263,0.906,0.416,0.726,0.693,�쐼,4.7,�L
2019/05/21,14:10,0.699,1.008,0.698,1.263,0.903,0.418,0.726,0.693,��,3.1,�L
2019/05/21,14:20,0.703,1.008,0.699,1.266,0.907,0.423,0.728,0.694,��쓌,2.6,�L
2019/05/21,14:30,0.705,1.014,0.701,1.266,0.907,0.424,0.727,0.696,�k��,2.0,�L
2019/05/21,14:40,0.703,1.014,0.704,1.268,0.905,0.426,0.729,0.696,��,4.9,�L
2019/05/21,14:50,0.705,1.013,0.702,1.269,0.906,0.426,0.726,0.694,�쓌,5.2,�L
2019/05/21,15:00,0.704,1.010,0.703,1.269,0.903,0.423,0.727,0.694,-,CALM,�L
2019/05/21,15:10,0.702,0.998,0.701,1.269,0.904,0.424,0.726,0.695,��,7.0,�L
2019/05/21,15:20,0.704,0.999,0.704,1.270,0.902,0.426,0.726,0.696,��,3.4,�L
2019/05/21,15:30,0.706,0.998,0.705,1.272,0.905,0.429,0.727,0.695,�쐼,1.5,�L
2019/05/21,15:40,0.707,1.005,0.703,1.273,0.901,0.428,0.727,0.697,��쓌,7.5,�L
2019/05/21,15:50,0.704,1.003,0.703,1.271,0.899,0.427,0.727,0.695,��,1.7,�L
2019/05/21,16:00,0.707,1.009,0.703,1.278,0.907,0.426,0.730,0.695,���k��,2.2,�L
2019/05/21,16:10,0.708,1.010,0.707,1.281,0.909,0.425,0.726,0.696,���k��,1.7,�L
2019/05/21,16:20,0.708,1.009,0.705,1.281,0.909,0.426,0.728,0.697,��,1.2,�L
2019/05/21,16:30,0.711,1.015,0.707,1.284,0.910,0.427,0.730,0.697,��,0.9,�L
2019/05/21,16:40,0.713,1.020,0.711,1.290,0.913,0.429,0.731,0.698,�k��,3.1,�L
2019/05/21,16:50,0.712,1.022,0.712,1.292,0.914,0.430,0.731,0.700,�k��,4.3,�L
2019/05/21,17:00,0.715,1.023,0.712,1.293,0.918,0.430,0.734,0.699,���k��,5.7,��
2019/05/21,17:10,0.717,1.023,0.712,1.295,0.915,0.429,0.733,0.698,���k��,7.4,��
2019/05/21,17:20,0.716,1.023,0.714,1.298,0.917,0.429,0.733,0.701,���k��,5.8,�L
2019/05/21,17:30,0.716,1.024,0.714,1.300,0.918,0.430,0.734,0.700,���k��,6.8,�L
2019/05/21,17:40,0.717,1.024,0.717,1.303,0.921,0.431,0.736,0.700,���k��,6.9,�L
2019/05/21,17:50,0.716,1.027,0.715,1.305,0.921,0.432,0.737,0.700,���k��,5.0,�L
2019/05/21,18:00,0.719,1.028,0.717,1.305,0.923,0.432,0.736,0.701,�k��,6.7,�L
2019/05/21,18:10,0.718,1.024,0.716,1.306,0.921,0.432,0.735,0.700,���k��,5.4,�L
2019/05/21,18:20,0.718,1.026,0.716,1.306,0.924,0.433,0.734,0.700,���k��,5.2,�L
2019/05/21,18:30,0.718,1.027,0.717,1.305,0.922,0.433,0.736,0.701,�k��,5.9,�L
2019/05/21,18:40,0.719,1.027,0.718,1.306,0.923,0.432,0.737,0.700,�k��,5.6,��
2019/05/21,18:50,0.720,1.029,0.718,1.309,0.925,0.431,0.736,0.700,�k��,4.7,�L
2019/05/21,19:00,0.722,1.030,0.717,1.310,0.925,0.432,0.737,0.704,�k��,4.6,�L
2019/05/21,19:10,0.723,1.030,0.717,1.308,0.925,0.431,0.738,0.702,�k��,5.2,�L
2019/05/21,19:20,0.721,1.028,0.716,1.308,0.926,0.432,0.737,0.701,�k��,5.3,�L
2019/05/21,19:30,0.720,1.027,0.715,1.308,0.922,0.430,0.738,0.701,�k��,5.3,�L
2019/05/21,19:40,0.722,1.028,0.715,1.306,0.924,0.429,0.739,0.703,�k��,5.3,��
2019/05/21,19:50,0.720,1.026,0.715,1.307,0.928,0.431,0.739,0.702,�k��,4.5,��
2019/05/21,20:00,0.722,1.030,0.716,1.308,0.925,0.430,0.740,0.702,�k��,4.1,��
2019/05/21,20:10,0.723,1.030,0.715,1.309,0.927,0.430,0.740,0.704,�k��,4.4,�L
2019/05/21,20:20,0.722,1.031,0.717,1.308,0.929,0.428,0.738,0.705,���k��,4.1,�L
2019/05/21,20:30,0.722,1.031,0.715,1.309,0.930,0.431,0.738,0.705,�k��,4.6,�L
2019/05/21,20:40,0.724,1.032,0.717,1.310,0.928,0.432,0.740,0.705,�k��,4.8,�L
2019/05/21,20:50,0.722,1.033,0.715,1.312,0.928,0.429,0.740,0.706,�k��,6.3,�L
2019/05/21,21:00,0.721,1.032,0.716,1.310,0.929,0.429,0.737,0.704,�k�k��,4.0,�L
2019/05/21,21:10,0.721,1.032,0.714,1.313,0.932,0.429,0.740,0.704,�k,4.1,�L
2019/05/21,21:20,0.722,1.031,0.718,1.313,0.929,0.428,0.739,0.704,�k�k��,4.6,�L
2019/05/21,21:30,0.721,1.033,0.716,1.310,0.932,0.429,0.740,0.703,�k�k��,4.8,�L
2019/05/21,21:40,0.721,1.033,0.715,1.314,0.931,0.428,0.742,0.703,�k�k��,4.9,�L
2019/05/21,21:50,0.723,1.034,0.716,1.312,0.930,0.428,0.740,0.704,�k�k��,5.1,�L
2019/05/21,22:00,0.723,1.034,0.718,1.311,0.933,0.428,0.740,0.704,�k�k��,4.7,�L
2019/05/21,22:10,0.722,1.033,0.717,1.311,0.932,0.428,0.739,0.703,�k,4.3,�L
2019/05/21,22:20,0.722,1.035,0.716,1.313,0.933,0.426,0.740,0.705,�k,4.1,�L
2019/05/21,22:30,0.722,1.035,0.716,1.313,0.932,0.426,0.741,0.705,�k�k��,4.6,�L
2019/05/21,22:40,0.725,1.033,0.716,1.313,0.932,0.427,0.741,0.705,�k�k��,5.1,��
2019/05/21,22:50,0.722,1.036,0.715,1.315,0.933,0.427,0.740,0.706,�k�k��,5.3,��
2019/05/21,23:00,0.723,1.036,0.718,1.314,0.933,0.426,0.739,0.704,�k�k��,5.7,��
2019/05/21,23:10,0.724,1.034,0.716,1.316,0.933,0.426,0.742,0.706,�k�k��,6.0,��
2019/05/21,23:20,0.724,1.034,0.718,1.315,0.934,0.428,0.740,0.705,�k�k��,6.0,��
2019/05/21,23:30,0.724,1.033,0.718,1.312,0.935,0.428,0.741,0.706,�k�k��,4.7,��
2019/05/21,23:40,0.725,1.033,0.717,1.314,0.935,0.428,0.741,0.707,�k�k��,4.8,��
2019/05/21,23:50,0.727,1.036,0.718,1.313,0.936,0.427,0.742,0.705,�k�k��,4.9,��
